#timestamp,LO_Frequency,Hit,StdDev 
1575874815.7,286047006.7,N
1575874835.5,286047003.6,N
1575874855.4,286046999.7,N
1575874875.2,286046995.8,N
1575874895.1,286046994.8,N
1575874896.0,286046994.8,N
1575874915.8,286046996.4,N
1575874935.6,286046999.2,N
1575874955.5,286047000.5,N
1575874975.3,286046991.1,N
1575874995.2,286046983.7,Y
1575875015.9,286046984.4,P
1575875035.7,286046987.9,N
1575875055.6,286046991.0,N
1575875075.4,286046989.1,N
1575875095.2,286046988.7,N
1575875115.1,286046988.3,N
1575875116.0,286046988.3,N
1575875135.8,286046986.2,Y
1575875155.7,286046999.6,P
1575875175.5,286046998.3,N
1575875195.3,286046995.2,N
1575875215.2,286046993.4,N
1575875235.0,286046995.8,N
1575875235.9,286046995.8,N
1575875255.8,286046993.5,N
1575875275.6,286046999.1,N
1575875295.4,286047007.9,N
1575875315.3,286047010.1,N
1575875335.1,286047015.3,N
1575875355.9,286047017.7,N
1575875375.7,286047025.4,N
1575875395.5,286047030.6,N
1575875415.4,286047036.7,N
1575875435.2,286047032.0,N
1575875455.1,286047039.1,N
1575875456.0,286047039.1,N
1575875475.8,286047030.6,N
1575875495.6,286047031.2,N
1575875515.5,286047025.6,N
1575875535.3,286047031.2,N
1575875555.2,286047029.6,N
1575875575.9,286047024.3,N
1575875595.7,286047026.2,N
1575875615.6,286047020.8,N
1575875635.4,286047016.9,N
1575875655.2,286047013.8,N
1575875675.1,286047012.0,N
1575875676.0,286047012.0,N
1575875695.8,286047013.1,N
1575875715.7,286047017.8,N
1575875735.5,286047018.0,N
1575875755.3,286047011.1,N
1575875775.2,286047013.6,N
1575875795.0,286047014.1,N
1575875795.9,286047014.1,N
1575875815.8,286047013.4,N
1575875835.6,286047010.9,N
1575875855.4,286047013.2,N
1575875875.3,286047014.3,N
1575875895.1,286047022.0,N
1575875915.9,286047019.8,N
1575875935.7,286047018.6,N
1575875955.6,286047018.4,N
1575875975.4,286047020.2,N
1575875995.2,286047015.6,N
1575876015.1,286047014.5,N
1575876016.0,286047014.5,N
1575876035.8,286047017.4,N
1575876055.7,286047018.1,Y
1575876075.5,286046994.1,P
1575876095.4,286046992.7,N
1575876115.2,286046992.8,N
1575876135.0,286046982.9,N
1575876135.9,286046982.9,N
1575876155.8,286046977.4,N
1575876175.6,286046974.8,N
1575876195.5,286046973.8,N
1575876215.3,286046979.9,N
1575876235.1,286046982.2,N
1575876255.9,286046992.3,N
1575876275.7,286046998.0,N
1575876295.6,286047008.2,N
1575876315.4,286046998.5,N
1575876335.2,286046998.2,N
1575876355.1,286047004.5,N
1575876356.0,286047004.5,N
1575876375.8,286047008.5,N
1575876395.6,286047006.9,N
1575876415.5,286047001.8,N
1575876435.3,286046997.5,N
1575876455.2,286046988.4,N
1575876475.9,286046982.9,N
1575876495.7,286046986.2,N
1575876515.6,286046989.4,N
1575876535.4,286046998.3,N
1575876555.3,286046997.7,N
1575876575.1,286047001.2,N
1575876576.0,286047001.2,N
1575876595.8,286046993.6,N
1575876615.7,286047001.2,N
1575876635.5,286047004.6,N
1575876655.3,286047010.4,N
1575876675.2,286047011.3,N
1575876695.0,286047012.3,N
1575876695.9,286047012.3,N
1575876715.8,286047011.7,N
1575876735.6,286047009.3,N
1575876755.4,286047011.7,N
1575876775.3,286047011.3,N
1575876795.1,286047012.4,N
1575876815.9,286047004.6,N
1575876835.7,286047001.8,N
1575876855.5,286047007.1,N
1575876875.4,286046996.9,N
1575876895.2,286046996.9,N
1575876915.0,286046997.7,N
1575876915.9,286046997.7,N
1575876935.8,286046991.4,N
1575876955.6,286046989.3,N
1575876975.5,286046983.8,N
1575876995.3,286046985.3,N
1575877015.2,286046994.1,N
1575877035.0,286046998.1,N
1575877035.9,286046998.1,N
1575877055.8,286046996.7,N
1575877075.6,286046998.5,N
1575877095.4,286046996.2,N
1575877115.3,286046989.7,N
1575877135.1,286046985.3,N
1575877155.9,286046991.9,N
1575877175.7,286047001.0,N
1575877195.5,286046997.1,N
1575877215.4,286047001.9,N
1575877235.2,286047002.0,N
1575877255.0,286047003.8,N
1575877255.9,286047003.8,N
1575877275.8,286047008.5,N
1575877295.6,286047010.4,N
1575877315.5,286047009.1,N
1575877335.3,286047010.5,N
1575877355.1,286047010.6,N
1575877375.9,286047009.3,N
1575877395.7,286047006.9,N
1575877415.6,286046995.0,N
1575877435.4,286047009.2,N
1575877455.2,286047014.9,N
1575877475.1,286047007.4,N
1575877476.0,286047007.4,N
1575877495.8,286046998.3,N
1575877515.6,286046994.2,N
1575877535.5,286046989.1,N
1575877555.3,286046987.6,N
1575877575.2,286046990.6,N
1575877595.9,286047000.1,N
1575877615.7,286047010.4,N
1575877635.6,286047011.0,N
1575877655.4,286047009.5,N
1575877675.2,286047001.1,N
1575877695.1,286047004.2,N
1575877696.0,286047004.2,N
1575877715.8,286047007.2,N
1575877735.7,286047006.2,N
1575877755.5,286047005.6,N
1575877775.3,286046997.9,N
1575877795.2,286046990.2,N
1575877815.0,286046994.6,N
1575877815.9,286046994.6,N
1575877835.8,286046996.0,N
1575877855.6,286046999.1,N
1575877875.4,286047004.6,N
1575877895.3,286047008.7,N
1575877915.1,286047000.7,N
1575877935.9,286046997.6,N
1575877955.7,286046998.0,N
1575877975.5,286046999.8,N
1575877995.4,286047013.4,N
1575878015.2,286047020.3,N
1575878035.0,286047018.3,N
1575878035.9,286047018.3,N
1575878055.8,286047013.6,N
1575878075.6,286047001.6,N
1575878095.5,286046999.7,N
1575878115.3,286047002.6,N
1575878135.2,286046999.4,N
1575878155.9,286046996.1,N
1575878175.7,286047001.8,N
1575878195.6,286047002.2,N
1575878215.4,286047006.0,N
1575878235.2,286047015.3,N
1575878255.1,286047017.3,N
1575878256.0,286047017.3,N
1575878275.8,286047012.2,N
1575878295.7,286047001.1,N
1575878315.5,286046993.5,N
1575878335.3,286046997.6,N
1575878355.2,286046993.7,N
1575878375.0,286046990.5,N
1575878375.9,286046990.5,N
1575878395.8,286046992.7,N
